#timestamp,LO_Frequency,Hit 
1498363215.3,286047056.6,N
1498363235.1,286047055.3,N
1498363236.0,286047055.3,N
1498363255.8,286047051.5,N
1498363275.7,286047047.0,N
1498363295.5,286047043.0,N
1498363315.3,286047043.7,N
1498363335.2,286047045.1,N
1498363355.9,286047050.5,N
1498363375.7,286047046.6,N
1498363395.5,286047044.5,N
1498363415.4,286047040.5,N
1498363435.2,286047035.3,N
1498363455.0,286047030.1,N
1498363455.9,286047030.1,N
1498363475.8,286047025.9,N
1498363495.6,286047029.2,N
1498363515.4,286047033.2,N
1498363535.3,286047034.6,N
1498363555.1,286047039.3,N
1498363575.8,286047041.7,N
1498363595.7,286047047.1,N
1498363615.5,286047043.2,N
1498363635.3,286047042.3,N
1498363655.2,286047038.2,N
1498363675.9,286047038.0,N
1498363695.7,286047036.8,N
1498363715.6,286047048.9,N
1498363735.4,286047057.4,N
1498363755.2,286047055.9,N
1498363775.0,286047058.6,N
1498363776.0,286047058.6,N
1498363795.8,286047060.5,N
1498363815.6,286047063.8,N
1498363835.4,286047061.6,N
1498363855.3,286047060.3,N
1498363875.1,286047057.5,N
1498363895.8,286047052.8,N
1498363915.7,286047050.6,N
1498363935.5,286047047.5,N
1498363955.3,286047045.6,N
1498363975.2,286047046.4,N
1498363995.9,286047055.6,N
1498364015.7,286047053.1,N
1498364035.5,286047059.9,N
1498364055.4,286047064.8,N
1498364075.2,286047064.4,N
1498364095.0,286047065.9,N
1498364095.9,286047065.9,N
1498364115.8,286047070.0,N
1498364135.6,286047072.4,N
1498364155.4,286047076.0,N
1498364175.3,286047072.7,N
1498364195.1,286047068.5,N
1498364215.8,286047071.7,N
1498364235.7,286047082.1,N
1498364255.5,286047077.2,N
1498364275.3,286047074.3,N
1498364295.2,286047069.2,N
1498364315.9,286047065.6,N
1498364335.7,286047064.6,N
1498364355.5,286047061.2,N
1498364375.4,286047059.3,N
1498364395.2,286047058.9,N
1498364415.0,286047057.7,N
1498364415.9,286047057.7,N
1498364435.8,286047056.1,N
1498364455.6,286047052.5,N
1498364475.4,286047051.9,N
1498364495.3,286047051.7,N
1498364515.1,286047049.0,N
1498364535.8,286047045.4,N
1498364555.7,286047044.4,N
1498364575.5,286047039.1,N
1498364595.3,286047045.1,N
1498364615.2,286047047.4,N
1498364635.9,286047042.1,N
1498364655.7,286047040.4,N
1498364675.6,286047041.3,N
1498364695.4,286047036.9,N
1498364715.2,286047033.3,N
1498364735.0,286047032.9,N
1498364735.9,286047032.9,N
1498364755.8,286047026.9,N
1498364775.6,286047026.8,N
1498364795.4,286047022.2,N
1498364815.3,286047020.1,N
1498364835.1,286047017.3,N
1498364855.8,286047016.2,N
1498364875.7,286047015.5,N
1498364895.5,286047011.0,N
1498364915.3,286047014.8,N
1498364935.2,286047014.6,N
1498364955.9,286047016.6,N
1498364975.7,286047014.4,N
1498364995.5,286047015.5,N
1498365015.4,286047014.8,N
1498365035.2,286047019.1,N
1498365055.0,286047019.6,N
1498365055.9,286047019.6,N
1498365075.8,286047021.5,N
1498365095.6,286047031.0,N
1498365115.4,286047031.4,N
1498365135.3,286047028.6,N
1498365155.1,286047031.8,N
1498365156.0,286047031.8,N
1498365175.8,286047026.4,N
1498365195.7,286047029.7,N
1498365215.5,286047033.6,N
1498365235.3,286047028.8,N
1498365255.2,286047024.8,N
1498365275.9,286047024.2,N
1498365295.7,286047029.7,N
1498365315.5,286047032.1,N
1498365335.4,286047035.0,N
1498365355.2,286047039.1,N
1498365375.0,286047037.0,N
1498365375.9,286047037.0,N
1498365395.8,286047038.0,N
1498365415.6,286047038.3,N
1498365435.4,286047045.8,N
1498365455.3,286047053.1,N
1498365475.1,286047054.3,N
1498365495.8,286047057.8,N
1498365515.7,286047055.7,N
1498365535.5,286047053.4,N
1498365555.3,286047049.5,N
1498365575.2,286047052.2,N
1498365595.9,286047051.3,N
1498365615.7,286047049.7,N
1498365635.5,286047048.5,N
1498365655.4,286047045.2,N
1498365675.2,286047041.0,N
1498365695.0,286047040.8,N
1498365695.9,286047040.8,N
1498365715.8,286047039.4,N
1498365735.6,286047037.1,N
1498365755.4,286047039.4,N
1498365775.3,286047040.5,N
1498365795.1,286047041.3,N
1498365815.8,286047039.7,N
1498365835.7,286047046.5,N
1498365855.5,286047048.6,N
1498365875.3,286047045.5,N
1498365895.2,286047039.8,N
1498365915.9,286047042.8,N
1498365935.7,286047040.6,N
1498365955.6,286047036.8,N
1498365975.4,286047031.9,N
1498365995.2,286047038.9,N
1498366015.0,286047040.6,N
1498366015.9,286047040.6,N
1498366035.8,286047039.5,N
1498366055.6,286047040.1,N
1498366075.4,286047042.5,N
1498366095.3,286047040.9,N
1498366115.1,286047037.1,N
1498366135.8,286047040.6,N
1498366155.7,286047040.6,N
1498366175.5,286047040.2,N
1498366195.7,286047043.7,N
1498366215.5,286047043.7,N
1498366235.3,286047049.8,N
1498366255.1,286047059.8,N
1498366275.9,286047067.3,N
1498366295.7,286047066.1,N
1498366315.5,286047064.9,N
1498366335.4,286047064.9,N
1498366355.4,286047067.8,N
1498366375.2,286047069.9,N
1498366395.0,286047065.8,N
1498366395.9,286047065.8,N
1498366415.8,286047070.9,N
1498366435.6,286047074.1,N
1498366455.4,286047069.0,N
1498366475.2,286047064.1,N
1498366495.1,286047059.6,N
1498366496.0,286047059.6,N
1498366515.8,286047058.2,N
1498366535.6,286047053.2,N
1498366555.5,286047046.2,N
1498366575.3,286047042.5,N
1498366595.1,286047038.3,N
1498366615.9,286047039.3,N
1498366635.7,286047038.1,N
1498366655.5,286047040.9,N
1498366675.4,286047042.0,N
1498366695.2,286047044.7,N
1498366715.0,286047053.7,N
1498366715.9,286047053.7,N
1498366735.7,286047056.9,N
1498366755.6,286047055.9,N
1498366775.4,286047054.8,N
1498366795.2,286047054.9,N
